Weather in Isayevskoye

Russia / Ivanovo Oblast     57°00′51″N   39°41′52″E
temp.,
°C
wind,
m/s
gust,
m/s
humid.,
%
clouds,
%
prec.,
mm/h
press.,
hPa
HPBL,
m
4 august, wed
wed400:00+16wsw476422 0.0 1011155
03:00+12wsw34790 0.0 101264
06:00+13w37782 0.0 1013196
09:00+20wnw56490 0.0 1014999
12:00+22w56374 0.0 10142197
15:00+24wnw563224 0.0 10142597
18:00+21wnw563986 0.0 1015751
21:00+16nnw335499 0.0 101645
5 august, thu
thu500:00+17nnw2252100 0.0 101730
03:00+15nw1157100 0.0 101715
06:00+15ne1157100 0.0 101813
09:00+19ne114399 0.0 1018434
12:00+23ene2334100 0.0 10182150
15:00+15ne2287100 1.1 101855
18:00+18nne116979 0.0 101747
21:00+14sse2294100 1.5 101868
6 august, fri
fri600:00+14ese4994100 0.9 1016291
03:00+14se4997100 6.3 1015322
06:00+14se3898100 3.6 1015380
09:00+14se4897100 7.3 1014348
12:00+16sse3590100 0.1 1014493
15:00+17se3384100 0.3 1014497
18:00+15ese2498100 2.7 1014170
21:00+15ese2598100 3.4 1014192
7 august, sat
sat700:00+14ene3599100 2.4 1015242
03:00+14ene4699100 2.8 1014283
06:00+14ene4799100 2.1 1014343
09:00+14ene4799100 8.3 1015280
12:00+17ene5689100 0.0 1015531
15:00+18ene6885100 0.1 1016576
18:00+17ene61094100 1.0 1015445
21:00+16ene51197100 2.3 1016382
8 august, sun
sun800:00+15e51396100 0.0 1016388
03:00+15e61295100 0.0 1015342
06:00+15ese51193100 0.0 1015333
09:00+16e51085100 0.0 1015338
12:00+19ese5870100 0.0 1015397
15:00+20e4769100 0.1 1015381
18:00+21ne3771100 0.0 1014154
21:00+18nnw2387100 0.4 101549